Zurück zum Katalog

STARLINK-6077

AktivKommunikationVLEO
NORAD 56097·PAYLOAD·🇺🇸 United States

Gestartet Mar 29, 2023 von Cape Canaveral Space Force Station

Loading…

Nächste Überflüge (nächste 24 Stunden)

TLE

AktuellSource: CelesTrak SupGP

Epoche: Sep 15, 2026, 02:42 UTC

1 56097C 23046E   26258.11298611  .00057666  00000+0  20895-2 0  2587
2 56097  43.0010 124.5216 0001806 266.2228 154.8126 15.27536307    18

Verfolge STARLINK-6077 in Echtzeit mit AllMySat

Download on the App Store